Погода в Амбролаури

Погода в Амбролаури : погода сейчас, прогноз погоды и архив. Всё, что Вы хотите узнать о погоде в Амбролаури!

Поиск расширенной информации на нашем сайте:

Другие новости

Новости СМИ2

Главная страница сайта

Новости сайта

03.07.2017

Напоминаем, что на нашем специализированном сайте Метеоцентр.Азия вы можете получить высокодетализированные автоматические прогнозы погоды по пунктам России, СНГ и мира в авиационном формате (включающие направление и скорость ветра, видимость, явления погоды, количество и форму облачности, нижнюю и верхнюю границу облачности).

Рекомендуем: Гербалайф белковые батончики.

Погода в Амбролаури - сегодня

Время (UTC), дата Ветер
(°,м/с) 
Видим.   Явления Облачность Т
(°С)
Тd
(°С)
f(%) Тe
(°С)
Pmin
(гПа)
dP
(гПа)
Po
(мм)
O2
(г/м3)
Тmin Tmax R s Состояние
почвы
09 12.07.17 260 (З) 5-4{04}  н/о    н/о 
+27.9 +17.3 53 +42  1010.7  713  257           
09 13.07.17 120 (ЮВ) 9-9{10}  н/о    н/о 
+28.2 +11.1 35 +32  1007.1  710  257           
12 13.07.17 130 (ЮВ) 6-6{07}  н/о    н/о 
+29.4 +13.8 38 +37  1005.9  -0.9  709  255         
09 14.07.17 160 (Ю) 4-4  н/о    н/о 
+29 +14.2 40 +38  1006.4  710  256           
09 15.07.17 250 (З) 3-2{04}  н/о    н/о 
+27.7 +16.8 51 +41  1008.1  711  256           
09 16.07.17 270 (З) 5-4{05}  н/о    н/о 
+30.3 +17.2 45 +45  1009.5  712  254           
12 16.07.17 340 (С) 1-1{03}  н/о    н/о 
+33.7 +17.6 38 +49  1007.7  -1.1  711  251         
09 17.07.17 100 (В) 5-5{05}  н/о    н/о 
+33 +15.1 34 +43  1009.5  712  253           
12 17.07.17 120 (ЮВ) 7-6{08}  н/о    н/о 
+34.9 +15.4 31 +46  1007.5  -1.5  711  251         
09 18.07.17 230 (ЮЗ) 3-2  н/о    н/о 
+31.4 +18.9 47 +49  1008.8  712  253           
12 18.07.17 280 (З) 5-4{05}  н/о    н/о 
+34.7 +18.7 39 +52  1006.3  -1.7  710  250         
09 19.07.17 270 (З) 4-3{04}  н/о    н/о 
+32 +18.2 44 +49  1006.3  710  252           
12 19.07.17 140 (ЮВ) 5-5{06}  н/о    н/о 
+34.6 +14.9 31 +45  1004.5  -1.2  709  251         
09 20.07.17 280 (З) 8-7{08}  н/о    н/о 
+28.9 +19.7 58 +49  1008.3  711  254           
12 20.07.17 280 (З) 9-9{09}  н/о    н/о 
+29 +20.1 59 +50  1007.5  710  254         
09 21.07.17 270 (З) 6-6{06}  н/о    н/о 
+29.1 +19.3 56 +48  1009  712  255           
12 21.07.17 290 (З) 8-7{08}  н/о    н/о 
+29.4 +20.7 60 +52  1008.6  -0.4  711  254         
12 22.07.17 140 (ЮВ) 7-7{07}  н/о    н/о 
+35.1 +11 23 +39  1006.7  -1  711  252         
09 23.07.17 180 (Ю) 2-1  н/о    н/о 
+23.3 +18.2 73 +40  1012.8  713  261           
09 24.07.17 290 (З) 5-5{06}  н/о    н/о 
+27.7 +18.1 56 +44  1007.7  710  256           
12 24.07.17 270 (З) 6-5{07}  н/о    н/о 
+29.4 +19.2 54 +48  1006  -1.2  709  254         
09 25.07.17 100 (В) 2-1{02}  н/о    н/о 
+29 +16.1 46 +41  1004.8  708  255           
12 25.07.17 270 (З) 6-6{06}  н/о    н/о 
+30.5 +19.3 51 +50  1003.3  -1.1  708  252         
09 26.07.17 270 (З) 5-4{04}  н/о    н/о 
+28.9 +17.7 51 +44  1004.8  708  254           
12 26.07.17 270 (З) 6-5{05}  н/о    н/о 
+33.1 +17.8 40 +49  1002.8  -1.1  708  250         
Время (UTC), дата Ветер
(°,м/с) 
Видим.   Явления Облачность Т
(°С)
Тd
(°С)
f(%) Тe
(°С)
Pmin
(гПа)
dP
(гПа)
Po
(мм)
O2
(г/м3)
Тmin Tmax R s Состояние
почвы

Для получения пояснительной информации подведите курсор к названию столбца.

ПОГОДА в Амбролаури - архив

Всё, что Вы хотите узнать о погоде в Амбролаури - удобно и подробно!

Выберите нужную дату (начиная с 1 января 2015* года) и нажмите кнопку "Найти".
Будут отображены архивные сводки погоды по пункту Амбролаури, начиная с указанной даты.


Отображать данные в формате CSV (для использования в таблицах Excel)


Внимание! Наш архив погоды предназначен исключительно для личного некоммерческого использования в познавательных целях. Если Вам необходимы официальные справки о состоянии погоды (для производственных, юридических, коммерческих и т.п. целей), обращайтесь в органы Росгидромета.

*Примечание: данная дата относится к архиву по метеостанциям СССР (Россия, СНГ, Балтия).
Архив по метеостанциям Зарубежной Европы и Азии (кроме Китая) хранится 10 дней, по другим регионам земного шара (Китай, Африка, Америка, Австралия, Океания) - 1 день.

Амбролаури - район местоположения метеостанции


Название, широта, долгота, высота метеостанции:
Амбролаури 42.5°ш. 43.2°д. 544 м над ур. моря [Грузия]

Дополнительная информация

В oтличие oт бoльшинства пoгoдных сайтoв мы публикуем пoдрoбную метеoинфoрмацию в детальнoм прoфессиoнальнoм фoрмате.

Характеристики температуры и влажнoсти вoздуха измеряются на высoте 2 м в тени вдали oт зданий и деревьев.
Скoрoсть ветра измеряется на высoте 10 м (на урoвне рoста челoвека скoрoсть ветра ниже в 1.5-2 раза). Если метеoстанция нахoдится в гoрoде или в лесу, тo скoрoсть ветра занижена на 2-4 м/с пo сравнению с oткрытым местoм. Скoрoсть ветра над акватoриями крупных рек и oзёр, а также на вершинах хoлмoв на 2-5 м/с выше, чем в oбычных услoвиях.
Атмoсфернoе давление в разных тoчках местнoсти мoжет значительнo oтличаться oт давления на метеoстанции, в зависимoсти oт услoвий рельефа (при пoдъёме на 10 м давление пoнижается примернo на 1 мм рт.ст.).